Le nostre stazioni meteo in Italia

Pubblicità
Il mio iltempo24.it
Cluanie Inn No 3, Gran Bretagna (99117): Temperatura & dewpoint: 14.02.2017 15:00:00 - 20.02.2017 15:00:00 (GMT)Cluanie Inn No 3, Gran Bretagna (99117): precipitazioni: 14.02.2017 15:00:00 - 20.02.2017 15:00:00 (GMT)
Data & Tempo tt [°C] td [°C] rr [mm]
20.02.2017 15:00:00 7,5 4,8 0,8
20.02.2017 14:00:00 8,1 4,6 0,4
20.02.2017 13:00:00 8,7 4,1 0,0
20.02.2017 12:00:00 8,8 5,2 0,0
20.02.2017 11:00:00 9,1 6,7 0,4
20.02.2017 10:00:00 9,5 7,3 2,4
20.02.2017 09:00:00 9,5 8,4 2,8
20.02.2017 08:00:00 10,3 8,7 6,8
20.02.2017 07:00:00 10,7 9,0 6,2
20.02.2017 06:00:00 10,8 8,8 2,4
20.02.2017 05:00:00 11,2 9,0 0,6
20.02.2017 04:00:00 10,4 8,5 0,2
20.02.2017 03:00:00 10,2 7,0 0,0
20.02.2017 02:00:00 9,9 7,5 0,0
20.02.2017 01:00:00 9,6 7,2 0,0
20.02.2017 00:00:00 10,1 7,9 0,0
19.02.2017 23:00:00 10,4 8,4 0,0
19.02.2017 22:00:00 10,4 8,9 0,8
19.02.2017 21:00:00 11,0 9,3 1,0
19.02.2017 20:00:00 11,0 9,1 1,0
19.02.2017 19:00:00 10,5 9,1 0,8
19.02.2017 18:00:00 10,1 8,8 1,0
19.02.2017 17:00:00 9,9 7,7 0,0
19.02.2017 16:00:00 9,7 8,0 0,0
19.02.2017 15:00:00 9,9 7,3 0,0
19.02.2017 14:00:00 9,6 7,4 0,0
19.02.2017 13:00:00 9,9 6,5 0,0
19.02.2017 12:00:00 9,8 6,8 0,0
19.02.2017 11:00:00 9,6 6,5 0,0
19.02.2017 10:00:00 8,9 6,4 0,0
19.02.2017 09:00:00 8,1 5,5 0,0
19.02.2017 08:00:00 7,6 5,0 0,0
19.02.2017 07:00:00 7,2 4,8 0,0
19.02.2017 06:00:00 7,3 4,5 0,2
19.02.2017 05:00:00 6,7 4,9 0,0
19.02.2017 04:00:00 6,9 5,1 0,0
19.02.2017 03:00:00 6,6 5,2 0,0
19.02.2017 02:00:00 6,9 5,5 0,2
19.02.2017 01:00:00 7,1 5,2 1,2
19.02.2017 00:00:00 7,7 6,0 1,2
18.02.2017 23:00:00 7,9 6,1 1,4
18.02.2017 22:00:00 7,5 5,5 0,8
18.02.2017 21:00:00 7,2 4,8 1,2
18.02.2017 20:00:00 7,5 4,3 1,2
18.02.2017 19:00:00 7,3 5,3 2,2
18.02.2017 18:00:00 7,1 4,3 3,0
18.02.2017 17:00:00 8,1 5,7 1,0
18.02.2017 16:00:00 8,4 6,4 1,8
18.02.2017 15:00:00 8,7 6,2 1,2
18.02.2017 14:00:00 8,7 6,1 2,0
18.02.2017 13:00:00 8,8 6,8 0,4
18.02.2017 12:00:00 9,0 6,2 0,0
18.02.2017 11:00:00 9,7 6,1 0,0
18.02.2017 10:00:00 9,1 7,1 0,4
18.02.2017 09:00:00 9,4 7,7 1,0
18.02.2017 08:00:00 9,3 7,9 1,0
18.02.2017 07:00:00 9,1 7,7 1,6
18.02.2017 06:00:00 9,5 7,4 0,8
18.02.2017 05:00:00 9,6 7,3 0,6
18.02.2017 04:00:00 9,6 7,2 0,0
18.02.2017 03:00:00 9,4 6,9 0,0
18.02.2017 02:00:00 9,7 6,8 0,0
18.02.2017 01:00:00 9,7 7,0 0,0
18.02.2017 00:00:00 9,3 7,2 0,0
17.02.2017 23:00:00 9,2 7,3 0,0
17.02.2017 22:00:00 7,9 6,5 0,0
17.02.2017 21:00:00 7,3 6,0 0,0
17.02.2017 20:00:00 8,0 5,0 0,0
17.02.2017 19:00:00 7,9 4,8 0,0
17.02.2017 18:00:00 8,4 4,5 0,0
17.02.2017 17:00:00 8,7 4,5 0,0
17.02.2017 16:00:00 9,2 4,8 0,0
17.02.2017 15:00:00 9,4 5,6 0,0
17.02.2017 14:00:00 9,1 6,4 0,0
17.02.2017 13:00:00 8,9 6,1 0,0
17.02.2017 12:00:00 7,8 5,4 0,0
17.02.2017 11:00:00 6,2 5,5 0,0
17.02.2017 10:00:00 3,7 3,7 0,0
17.02.2017 09:00:00 1,2 1,1 0,2
17.02.2017 08:00:00 0,1 -0,2 0,0
17.02.2017 07:00:00 -0,3 -0,5 0,0
17.02.2017 06:00:00 -0,2 -0,4 0,0
17.02.2017 05:00:00 0,4 0,0 0,0
17.02.2017 04:00:00 1,9 1,6 0,0
17.02.2017 03:00:00 1,6 1,0 0,0
17.02.2017 02:00:00 3,0 2,4 0,0
17.02.2017 01:00:00 2,3 1,8 0,0
17.02.2017 00:00:00 2,9 2,1 0,0
16.02.2017 23:00:00 2,9 2,3 0,0
16.02.2017 22:00:00 3,6 2,2 0,0
16.02.2017 21:00:00 5,0 2,9 0,0
16.02.2017 20:00:00 7,4 5,2 0,0
16.02.2017 19:00:00 7,5 4,6 0,0
16.02.2017 18:00:00 8,0 4,0 0,0
16.02.2017 17:00:00 7,9 4,4 0,0
16.02.2017 16:00:00 8,1 4,9 0,0
16.02.2017 15:00:00 8,0 4,7 0,0
16.02.2017 14:00:00 8,1 4,8 0,0
16.02.2017 13:00:00 7,9 5,7 1,8
16.02.2017 12:00:00 8,0 5,5 0,8
16.02.2017 11:00:00 8,1 5,4 1,0
16.02.2017 10:00:00 7,5 5,5 2,2
16.02.2017 09:00:00 7,4 5,7 1,4
16.02.2017 08:00:00 7,1 5,6 4,8
16.02.2017 07:00:00 7,1 5,0 4,4
16.02.2017 06:00:00 7,7 5,6 3,0
16.02.2017 05:00:00 7,5 5,7 1,0
16.02.2017 04:00:00 7,9 4,9 1,8
16.02.2017 03:00:00 8,4 5,5 0,2
16.02.2017 02:00:00 8,1 5,5 0,0
16.02.2017 01:00:00 7,2 5,6 0,8
16.02.2017 00:00:00 7,7 5,3 0,2
15.02.2017 23:00:00 7,6 5,8 0,6
15.02.2017 22:00:00 7,4 5,5 1,4
15.02.2017 21:00:00 6,4 5,6 0,6
15.02.2017 20:00:00 6,3 5,1 0,4
15.02.2017 19:00:00 6,6 4,9 0,2
15.02.2017 18:00:00 6,6 5,0 1,2
15.02.2017 17:00:00 6,9 4,8 0,6
15.02.2017 16:00:00 8,1 4,0 0,0
15.02.2017 15:00:00 8,5 2,8 0,0
15.02.2017 14:00:00 8,3 2,8 0,0
15.02.2017 13:00:00 8,2 2,1 0,0
15.02.2017 12:00:00 9,2 2,9 0,0
15.02.2017 11:00:00 7,3 3,6 0,0
15.02.2017 10:00:00 7,4 2,6 0,0
15.02.2017 09:00:00 6,9 2,5 0,0
15.02.2017 08:00:00 6,9 3,2 0,0
15.02.2017 07:00:00 6,9 3,9 0,0
15.02.2017 06:00:00 6,4 4,2 0,0
15.02.2017 05:00:00 5,6 3,0 0,0
15.02.2017 04:00:00 6,1 3,5 0,0
15.02.2017 03:00:00 5,7 3,2 0,0
15.02.2017 02:00:00 6,0 2,0 0,0
15.02.2017 01:00:00 5,5 1,2 0,0
15.02.2017 00:00:00 4,8 0,7 0,0
14.02.2017 23:00:00 4,5 0,6 0,0
14.02.2017 22:00:00 2,3 -0,8 0,0
14.02.2017 21:00:00 3,7 -0,1 0,0
14.02.2017 20:00:00 3,7 -0,6 0,0
14.02.2017 19:00:00 4,9 -0,1 0,0
14.02.2017 18:00:00 4,6 0,1 0,0
14.02.2017 17:00:00 5,3 -0,8 0,0
14.02.2017 16:00:00 6,7 -0,6 0,0
14.02.2017 15:00:00 8,0 -1,0 0,0

tt = Temperatura
td = dewpoint
rr = precipitazioni

Stazioni seguenti

WeatherPro
AMSI
MeteoEarth